,,,PA_Meas_PMT16A,,PR_Meas_QMR101_102,,RH_Meas_QMH101,,SR_Meas_QMS101,,TA_Meas_QMH101,,GenWind,,GenWind,
date,time,status,PA,status,PR,status,RH,status,SR,status,TA,status,DirAvg,status,SpdAvg,
2009-08-06, 00:00:04,VALID,1003.02,VALID,0,VALID,81.1255,VALID,0,VALID,26.9752,VALID,25,VALID,0.519531,
2009-08-06, 00:01:04,VALID,1003,VALID,0,VALID,80.9729,VALID,0,VALID,26.9557,VALID,30,VALID,1.41992,
2009-08-06, 00:02:04,VALID,1003.03,VALID,0,VALID,81.0721,VALID,0,VALID,26.9557,VALID,29,VALID,0.278516,
2009-08-06, 00:03:04,VALID,1003.06,VALID,0,VALID,81.1179,VALID,0,VALID,26.9557,VALID,26,VALID,0.641406,
2009-08-06, 00:04:04,VALID,1003.1,VALID,0,VALID,80.7746,VALID,0,VALID,26.9557,VALID,35,VALID,0.316016,
2009-08-06, 00:05:04,VALID,1003.11,VALID,0,VALID,80.7822,VALID,0,VALID,26.9752,VALID,46,VALID,0.418359,
2009-08-06, 00:06:04,VALID,1003.12,VALID,0,VALID,80.6678,VALID,0,VALID,26.9752,VALID,47,VALID,0.139844,
2009-08-06, 00:07:04,VALID,1003.13,VALID,0,VALID,80.5533,VALID,0,VALID,26.9342,VALID,41,VALID,0.310156,
2009-08-06, 00:08:04,VALID,1003.14,VALID,0,VALID,80.9501,VALID,0,VALID,26.9752,VALID,43,VALID,0.075,
2009-08-06, 00:09:04,VALID,1003.15,VALID,0,VALID,80.9348,VALID,0,VALID,26.9557,VALID,38,VALID,0.657422,
2009-08-06, 00:10:04,VALID,1003.13,VALID,0,VALID,80.9348,VALID,0,VALID,26.9362,VALID,43,VALID,0.460547,
2009-08-06, 00:11:04,VALID,1003.11,VALID,0,VALID,81.0569,VALID,0,VALID,26.9167,VALID,28,VALID,0.277734,
2009-08-06, 00:12:04,VALID,1003.09,VALID,0,VALID,81.1179,VALID,0,VALID,26.8952,VALID,34,VALID,0.360938,
2009-08-06, 00:13:04,VALID,1003.05,VALID,0,VALID,81.1408,VALID,0,VALID,26.8973,VALID,34,VALID,0.310547,
2009-08-06, 00:14:04,VALID,1003.02,VALID,0,VALID,81.3239,VALID,0,VALID,26.8583,VALID,34,VALID,0.354297,
2009-08-06, 00:15:04,VALID,1002.99,VALID,0,VALID,81.4841,VALID,0,VALID,26.8388,VALID,34,VALID,0.310937,
2009-08-06, 00:16:04,VALID,1003,VALID,0,VALID,81.4612,VALID,0.100563,VALID,26.8603,VALID,34,VALID,0.220313,
2009-08-06, 00:17:04,VALID,1002.99,VALID,0,VALID,81.1179,VALID,0,VALID,26.8193,VALID,30,VALID,0.402734,
2009-08-06, 00:18:04,VALID,1003.01,VALID,0,VALID,81.3391,VALID,0,VALID,26.8193,VALID,357,VALID,0.307422,
2009-08-06, 00:19:04,VALID,1003,VALID,0,VALID,81.0645,VALID,0,VALID,26.8583,VALID,356,VALID,0.244141,
2009-08-06, 00:20:04,VALID,1003.02,VALID,0,VALID,80.6449,VALID,0,VALID,26.8778,VALID,349,VALID,0.177344,
2009-08-06, 00:21:04,VALID,1003.06,VALID,0,VALID,80.6983,VALID,0,VALID,26.9167,VALID,352,VALID,0.146094,
2009-08-06, 00:22:04,VALID,1003.07,VALID,0,VALID,80.7517,VALID,0,VALID,26.9362,VALID,354,VALID,0.196875,
2009-08-06, 00:23:04,VALID,1003.08,VALID,0,VALID,80.9195,VALID,0,VALID,26.9147,VALID,354,VALID,0.0632813,
2009-08-06, 00:24:04,VALID,1003.07,VALID,0,VALID,80.561,VALID,0,VALID,26.9557,VALID,21,VALID,0.734766,
2009-08-06, 00:25:04,VALID,1003.03,VALID,0,VALID,80.2863,VALID,0,VALID,26.9947,VALID,18,VALID,1.08164,
2009-08-06, 00:26:04,VALID,1002.98,VALID,0,VALID,80.2253,VALID,0,VALID,27.0531,VALID,21,VALID,0.983594,
2009-08-06, 00:27:04,VALID,1002.9,VALID,0,VALID,79.6074,VALID,0,VALID,27.1311,VALID,37,VALID,0.95,
2009-08-06, 00:28:04,VALID,1002.86,VALID,0,VALID,79.5921,VALID,0,VALID,27.17,VALID,358,VALID,0.482422,
2009-08-06, 00:29:04,VALID,1002.83,VALID,0,VALID,79.8439,VALID,0,VALID,27.209,VALID,1,VALID,0.664453,
2009-08-06, 00:30:04,VALID,1002.77,VALID,0,VALID,80.0041,VALID,0,VALID,27.248,VALID,360,VALID,0.516406,
2009-08-06, 00:31:04,VALID,1002.75,VALID,0,VALID,80.3245,VALID,0,VALID,27.248,VALID,360,VALID,0.0171875,
2009-08-06, 00:32:04,VALID,1002.74,VALID,0,VALID,80.5457,VALID,0,VALID,27.2285,VALID,338,VALID,0.288672,
2009-08-06, 00:33:04,VALID,1002.7,VALID,0,VALID,80.3245,VALID,0,VALID,27.209,VALID,326,VALID,0.889063,
2009-08-06, 00:34:04,VALID,1002.7,VALID,0,VALID,80.7288,VALID,0,VALID,27.209,VALID,338,VALID,0.540625,
2009-08-06, 00:35:04,VALID,1002.69,VALID,0,VALID,80.828,VALID,0,VALID,27.209,VALID,337,VALID,0.339844,
2009-08-06, 00:36:04,VALID,1002.71,VALID,0,VALID,81.0111,VALID,0,VALID,27.1895,VALID,337,VALID,0.434375,
2009-08-06, 00:37:04,VALID,1002.73,VALID,0,VALID,80.5381,VALID,0,VALID,27.1506,VALID,343,VALID,0.461719,
2009-08-06, 00:38:04,VALID,1002.75,VALID,0,VALID,81.1255,VALID,0,VALID,27.1506,VALID,350,VALID,0.0714844,
2009-08-06, 00:39:04,VALID,1002.8,VALID,0,VALID,81.2171,VALID,0,VALID,27.1506,VALID,350,VALID,0.0675781,
2009-08-06, 00:40:04,VALID,1002.8,VALID,0,VALID,81.4078,VALID,0,VALID,27.1311,VALID,350,VALID,0.220703,
2009-08-06, 00:41:04,VALID,1002.81,VALID,0,VALID,81.1789,VALID,0,VALID,27.1095,VALID,350,VALID,0.0746094,
2009-08-06, 00:42:04,VALID,1002.78,VALID,0,VALID,81.1713,VALID,0,VALID,27.09,VALID,350,VALID,0.165234,
2009-08-06, 00:43:04,VALID,1002.77,VALID,0,VALID,81.2934,VALID,0,VALID,27.0921,VALID,350,VALID,0,
2009-08-06, 00:44:04,VALID,1002.71,VALID,0,VALID,81.9494,VALID,0,VALID,27.0511,VALID,350,VALID,0,
2009-08-06, 00:45:04,VALID,1002.68,VALID,0,VALID,81.9647,VALID,0,VALID,27.0121,VALID,350,VALID,0,
2009-08-06, 00:46:04,VALID,1002.61,VALID,0,VALID,81.7358,VALID,0,VALID,26.9947,VALID,350,VALID,0,
2009-08-06, 00:47:04,VALID,1002.58,VALID,0,VALID,81.4688,VALID,0,VALID,26.9537,VALID,350,VALID,0,
2009-08-06, 00:48:04,VALID,1002.58,VALID,0,VALID,81.8808,VALID,0,VALID,26.9342,VALID,350,VALID,0,
2009-08-06, 00:49:04,VALID,1002.6,VALID,0,VALID,81.9494,VALID,0,VALID,26.9147,VALID,350,VALID,0,
2009-08-06, 00:50:04,VALID,1002.55,VALID,0,VALID,82.4835,VALID,0,VALID,26.8757,VALID,349,VALID,0,
2009-08-06, 00:51:04,VALID,1002.62,VALID,0,VALID,83.2082,VALID,0,VALID,26.8757,VALID,349,VALID,0.294922,
2009-08-06, 00:52:04,VALID,1002.65,VALID,0,VALID,83.6125,VALID,0,VALID,26.7998,VALID,349,VALID,0.314844,
2009-08-06, 00:53:04,VALID,1002.68,VALID,0,VALID,83.9863,VALID,0.100563,VALID,26.7004,VALID,349,VALID,0.173828,
2009-08-06, 00:54:04,VALID,1002.7,VALID,0,VALID,83.6354,VALID,0,VALID,26.6225,VALID,349,VALID,0.109766,
2009-08-06, 00:55:04,VALID,1002.73,VALID,0,VALID,84.0474,VALID,0,VALID,26.5835,VALID,350,VALID,0.170312,
2009-08-06, 00:56:04,VALID,1002.71,VALID,0,VALID,84.2762,VALID,0,VALID,26.5641,VALID,349,VALID,0.204297,
2009-08-06, 00:57:04,VALID,1002.68,VALID,0,VALID,81.4154,VALID,0.100563,VALID,26.5446,VALID,22,VALID,0.458984,
2009-08-06, 00:58:04,VALID,1002.64,VALID,0,VALID,80.4313,VALID,0,VALID,26.6614,VALID,31,VALID,0.860937,
2009-08-06, 00:59:04,VALID,1002.63,VALID,0,VALID,80.4237,VALID,0,VALID,26.7199,VALID,16,VALID,0.870313,
2009-08-06, 01:00:04,VALID,1002.62,VALID,0,VALID,80.1338,VALID,0,VALID,26.7998,VALID,17,VALID,0.726172,
2009-08-06, 01:01:04,VALID,1002.61,VALID,0,VALID,80.2558,VALID,0,VALID,26.8563,VALID,18,VALID,0.228125,
2009-08-06, 01:02:04,VALID,1002.55,VALID,0,VALID,80.2329,VALID,0,VALID,26.8757,VALID,18,VALID,0.29375,
2009-08-06, 01:03:04,VALID,1002.56,VALID,0,VALID,79.4624,VALID,0,VALID,26.9342,VALID,15,VALID,0.519141,
2009-08-06, 01:04:04,VALID,1002.54,VALID,0,VALID,78.7606,VALID,0,VALID,27.0726,VALID,29,VALID,0.835156,
2009-08-06, 01:05:04,VALID,1002.54,VALID,0,VALID,78.5698,VALID,0,VALID,27.2285,VALID,355,VALID,0.803125,
2009-08-06, 01:06:04,VALID,1002.53,VALID,0,VALID,78.7606,VALID,0,VALID,27.2654,VALID,11,VALID,0.446094,
2009-08-06, 01:07:04,VALID,1002.52,VALID,0,VALID,78.9971,VALID,0,VALID,27.2849,VALID,10,VALID,0.422266,
2009-08-06, 01:08:04,VALID,1002.48,VALID,0,VALID,79.4929,VALID,0,VALID,27.2654,VALID,26,VALID,0.771094,
2009-08-06, 01:09:04,VALID,1002.46,VALID,0,VALID,79.8668,VALID,0,VALID,27.2675,VALID,27,VALID,0.948438,
2009-08-06, 01:10:04,VALID,1002.45,VALID,0,VALID,80.027,VALID,0,VALID,27.2869,VALID,355,VALID,1.11563,
2009-08-06, 01:11:04,VALID,1002.42,VALID,0,VALID,80.3703,VALID,0,VALID,27.2849,VALID,352,VALID,0.609766,
2009-08-06, 01:12:04,VALID,1002.37,VALID,0,VALID,80.7441,VALID,0,VALID,27.2849,VALID,357,VALID,1.00469,
2009-08-06, 01:13:04,VALID,1002.33,VALID,0,VALID,80.6068,VALID,0,VALID,27.3259,VALID,347,VALID,1.00703,
2009-08-06, 01:14:04,VALID,1002.31,VALID,0,VALID,80.4618,VALID,0,VALID,27.3044,VALID,18,VALID,0.759375,
2009-08-06, 01:15:04,VALID,1002.26,VALID,0,VALID,80.3321,VALID,0,VALID,27.3433,VALID,356,VALID,1.26172,
2009-08-06, 01:16:04,VALID,1002.29,VALID,0,VALID,80.5228,VALID,0,VALID,27.3628,VALID,358,VALID,1.10586,
2009-08-06, 01:17:04,VALID,1002.28,VALID,0,VALID,80.4313,VALID,0,VALID,27.3649,VALID,358,VALID,1.14258,
2009-08-06, 01:18:04,VALID,1002.29,VALID,0,VALID,80.5228,VALID,0,VALID,27.3628,VALID,6,VALID,0.639844,
2009-08-06, 01:19:04,VALID,1002.32,VALID,0,VALID,80.3092,VALID,0,VALID,27.3238,VALID,15,VALID,0.580859,
2009-08-06, 01:20:04,VALID,1002.32,VALID,0,VALID,80.2024,VALID,0,VALID,27.3649,VALID,6,VALID,0.511719,
2009-08-06, 01:21:04,VALID,1002.29,VALID,0,VALID,79.3404,VALID,0,VALID,27.3238,VALID,33,VALID,1.00195,
2009-08-06, 01:22:04,VALID,1002.29,VALID,0,VALID,79.6074,VALID,0,VALID,27.3844,VALID,32,VALID,1.30156,
2009-08-06, 01:23:04,VALID,1002.34,VALID,0,VALID,79.6989,VALID,0,VALID,27.3649,VALID,17,VALID,1.14609,
2009-08-06, 01:24:04,VALID,1002.33,VALID,0,VALID,79.47,VALID,0,VALID,27.3628,VALID,5,VALID,1.21133,
2009-08-06, 01:25:04,VALID,1002.35,VALID,0,VALID,79.8057,VALID,0,VALID,27.3823,VALID,360,VALID,0.860937,
2009-08-06, 01:26:04,VALID,1002.35,VALID,0,VALID,79.9125,VALID,0,VALID,27.3433,VALID,357,VALID,0.733594,
2009-08-06, 01:27:04,VALID,1002.33,VALID,0,VALID,80.1872,VALID,0,VALID,27.3433,VALID,22,VALID,0.544141,
2009-08-06, 01:28:04,VALID,1002.33,VALID,0,VALID,80.2558,VALID,0,VALID,27.3259,VALID,14,VALID,0.765625,
2009-08-06, 01:29:04,VALID,1002.34,VALID,0,VALID,80.5305,VALID,0.100563,VALID,27.3044,VALID,5,VALID,0.505859,
2009-08-06, 01:30:04,VALID,1002.33,VALID,0,VALID,80.561,VALID,0,VALID,27.2849,VALID,27,VALID,0.726172,
2009-08-06, 01:31:04,VALID,1002.32,VALID,0,VALID,80.6754,VALID,0,VALID,27.2654,VALID,18,VALID,0.638281,
2009-08-06, 01:32:04,VALID,1002.33,VALID,0,VALID,80.5228,VALID,0,VALID,27.2654,VALID,11,VALID,1.05664,
2009-08-06, 01:33:04,VALID,1002.35,VALID,0,VALID,80.9043,VALID,0,VALID,27.2869,VALID,27,VALID,1.04688,
2009-08-06, 01:34:04,VALID,1002.36,VALID,0,VALID,80.7517,VALID,0,VALID,27.2675,VALID,18,VALID,0.810938,
2009-08-06, 01:35:04,VALID,1002.37,VALID,0,VALID,81.1331,VALID,0,VALID,27.2675,VALID,358,VALID,0.390625,
2009-08-06, 01:36:04,VALID,1002.37,VALID,0,VALID,81.423,VALID,0,VALID,27.2675,VALID,355,VALID,0.836328,
2009-08-06, 01:37:04,VALID,1002.35,VALID,0,VALID,81.4688,VALID,0,VALID,27.2069,VALID,356,VALID,0.251953,
2009-08-06, 01:38:04,VALID,1002.36,VALID,0,VALID,81.3773,VALID,0,VALID,27.1875,VALID,18,VALID,0.513281,
2009-08-06, 01:39:04,VALID,1002.38,VALID,0,VALID,81.5146,VALID,0,VALID,27.1895,VALID,12,VALID,0.823047,
2009-08-06, 01:40:04,VALID,1002.36,VALID,0,VALID,81.4459,VALID,0.100563,VALID,27.1875,VALID,2,VALID,0.747266,
2009-08-06, 01:41:04,VALID,1002.37,VALID,0,VALID,81.2247,VALID,0,VALID,27.1895,VALID,1,VALID,0.788672,
2009-08-06, 01:42:04,VALID,1002.4,VALID,0,VALID,81.2628,VALID,0,VALID,27.1895,VALID,2,VALID,0.795313,
2009-08-06, 01:43:04,VALID,1002.41,VALID,0,VALID,81.2628,VALID,0,VALID,27.1875,VALID,30,VALID,0.455859,
2009-08-06, 01:44:04,VALID,1002.47,VALID,0,VALID,80.683,VALID,0,VALID,27.168,VALID,34,VALID,0.942578,
2009-08-06, 01:45:04,VALID,1002.5,VALID,0,VALID,81.156,VALID,0,VALID,27.1895,VALID,30,VALID,0.726563,
2009-08-06, 01:46:04,VALID,1002.49,VALID,0,VALID,81.2476,VALID,0,VALID,27.209,VALID,15,VALID,0.4875,
2009-08-06, 01:47:04,VALID,1002.49,VALID,0,VALID,80.9195,VALID,0,VALID,27.1895,VALID,29,VALID,1.05547,
2009-08-06, 01:48:04,VALID,1002.5,VALID,0,VALID,81.8045,VALID,0,VALID,27.1311,VALID,34,VALID,0.576172,
2009-08-06, 01:49:04,VALID,1002.48,VALID,0,VALID,81.5527,VALID,0,VALID,27.1506,VALID,14,VALID,0.994141,
2009-08-06, 01:50:04,VALID,1002.47,VALID,0,VALID,82.3919,VALID,0,VALID,27.1506,VALID,50,VALID,0.708594,
2009-08-06, 01:51:04,VALID,1002.47,VALID,0,VALID,82.8115,VALID,0,VALID,27.1311,VALID,33,VALID,1.13047,
2009-08-06, 01:52:04,VALID,1002.48,VALID,0,VALID,83.254,VALID,0,VALID,27.1311,VALID,17,VALID,1.52734,
2009-08-06, 01:53:04,VALID,1002.49,VALID,0,VALID,83.4294,VALID,0,VALID,27.1506,VALID,32,VALID,2.04023,
2009-08-06, 01:54:04,VALID,1002.47,VALID,0,VALID,83.9253,VALID,0,VALID,27.168,VALID,41,VALID,1.94102,
2009-08-06, 01:55:04,VALID,1002.47,VALID,0,VALID,84.4822,VALID,0,VALID,27.168,VALID,10,VALID,0.783203,
2009-08-06, 01:56:04,VALID,1002.43,VALID,0,VALID,85.001,VALID,0,VALID,27.1095,VALID,26,VALID,1.5793,
2009-08-06, 01:57:04,VALID,1002.41,VALID,0,VALID,85.4282,VALID,0,VALID,27.1311,VALID,38,VALID,1.13008,
2009-08-06, 01:58:04,VALID,1002.38,VALID,0,VALID,85.9851,VALID,0,VALID,27.1311,VALID,26,VALID,1.28906,
2009-08-06, 01:59:04,VALID,1002.37,VALID,0,VALID,86.3437,VALID,0,VALID,27.1116,VALID,5,VALID,1.07891,
2009-08-06, 02:00:04,VALID,1002.34,VALID,0,VALID,86.5496,VALID,0,VALID,27.0726,VALID,346,VALID,0.766016,
2009-08-06, 02:01:04,VALID,1002.34,VALID,0,VALID,86.9616,VALID,0,VALID,27.0142,VALID,30,VALID,1.23438,
2009-08-06, 02:02:04,VALID,1002.35,VALID,0,VALID,87.0303,VALID,0,VALID,26.9752,VALID,34,VALID,1.16289,
2009-08-06, 02:03:04,VALID,1002.32,VALID,0,VALID,87.1066,VALID,0,VALID,26.9557,VALID,22,VALID,1.62891,
2009-08-06, 02:04:04,VALID,1002.3,VALID,0,VALID,87.1294,VALID,0,VALID,26.8778,VALID,38,VALID,1.27031,
2009-08-06, 02:05:04,VALID,1002.28,VALID,0,VALID,87.4422,VALID,0,VALID,26.8778,VALID,24,VALID,1.49922,
2009-08-06, 02:06:04,VALID,1002.28,VALID,0,VALID,87.4117,VALID,0,VALID,26.8778,VALID,24,VALID,1.24063,
2009-08-06, 02:07:04,VALID,1002.22,VALID,0,VALID,87.5338,VALID,0,VALID,26.8368,VALID,25,VALID,1.41484,
2009-08-06, 02:08:04,VALID,1002.14,VALID,0,VALID,87.8466,VALID,0,VALID,26.8368,VALID,52,VALID,1.24727,
2009-08-06, 02:09:04,VALID,1002.15,VALID,0,VALID,88.0754,VALID,0,VALID,26.8583,VALID,25,VALID,1.44102,
2009-08-06, 02:10:04,VALID,1002.12,VALID,0,VALID,88.3119,VALID,0,VALID,26.8193,VALID,33,VALID,1.39805,
2009-08-06, 02:11:04,VALID,1002.09,VALID,0,VALID,88.1212,VALID,0,VALID,26.8193,VALID,32,VALID,0.851172,
2009-08-06, 02:12:04,VALID,1002.05,VALID,0,VALID,88.2814,VALID,0,VALID,26.7783,VALID,18,VALID,1.36836,
2009-08-06, 02:13:04,VALID,1002.01,VALID,0,VALID,88.64,VALID,0,VALID,26.7804,VALID,26,VALID,1.6875,
2009-08-06, 02:14:04,VALID,1001.97,VALID,0,VALID,88.7849,VALID,0,VALID,26.7804,VALID,13,VALID,0.635156,
2009-08-06, 02:15:04,VALID,1001.94,VALID,0,VALID,88.8002,VALID,0,VALID,26.7804,VALID,6,VALID,1.06797,
2009-08-06, 02:16:04,VALID,1001.87,VALID,0,VALID,88.7239,VALID,0,VALID,26.7804,VALID,23,VALID,0.457812,
2009-08-06, 02:17:04,VALID,1001.9,VALID,0,VALID,89.0061,VALID,0,VALID,26.7804,VALID,22,VALID,0.251172,
2009-08-06, 02:18:04,VALID,1001.87,VALID,0,VALID,88.6094,VALID,0,VALID,26.7609,VALID,31,VALID,1.58516,
2009-08-06, 02:19:04,VALID,1001.86,VALID,0,VALID,88.5179,VALID,0,VALID,26.7783,VALID,17,VALID,0.687109,
2009-08-06, 02:20:04,VALID,1001.89,VALID,0,VALID,88.6018,VALID,0,VALID,26.7998,VALID,12,VALID,0.546875,
2009-08-06, 02:21:04,VALID,1001.9,VALID,0,VALID,88.4492,VALID,0,VALID,26.7804,VALID,15,VALID,0.964844,
2009-08-06, 02:22:04,VALID,1001.89,VALID,0,VALID,88.5866,VALID,0,VALID,26.7609,VALID,24,VALID,0.551953,
2009-08-06, 02:23:04,VALID,1001.9,VALID,0,VALID,88.8841,VALID,0,VALID,26.7199,VALID,25,VALID,1.16445,
2009-08-06, 02:24:04,VALID,1001.9,VALID,0,VALID,88.7697,VALID,0,VALID,26.7609,VALID,43,VALID,1.36992,
2009-08-06, 02:25:04,VALID,1001.93,VALID,0,VALID,88.6323,VALID,0,VALID,26.7609,VALID,35,VALID,1.3707,
2009-08-06, 02:26:04,VALID,1001.92,VALID,0,VALID,88.9222,VALID,0,VALID,26.7609,VALID,13,VALID,0.566797,
2009-08-06, 02:27:04,VALID,1001.92,VALID,0,VALID,88.9909,VALID,0,VALID,26.7394,VALID,21,VALID,1.07148,
2009-08-06, 02:28:04,VALID,1001.92,VALID,0,VALID,88.9833,VALID,0,VALID,26.7004,VALID,26,VALID,1.07578,
2009-08-06, 02:29:04,VALID,1001.92,VALID,0,VALID,88.9527,VALID,0,VALID,26.7219,VALID,25,VALID,2.17227,
2009-08-06, 02:30:04,VALID,1001.91,VALID,0,VALID,88.8536,VALID,0,VALID,26.7609,VALID,12,VALID,1.16641,
2009-08-06, 02:31:04,VALID,1001.91,VALID,0,VALID,88.7849,VALID,0,VALID,26.7414,VALID,13,VALID,1.60234,
2009-08-06, 02:32:04,VALID,1001.92,VALID,0,VALID,88.8459,VALID,0,VALID,26.7609,VALID,345,VALID,0.6875,
2009-08-06, 02:33:04,VALID,1001.95,VALID,0,VALID,88.7315,VALID,0,VALID,26.7394,VALID,29,VALID,1.2707,
2009-08-06, 02:34:04,VALID,1001.95,VALID,0,VALID,88.8993,VALID,0,VALID,26.7004,VALID,33,VALID,1.00195,
2009-08-06, 02:35:04,VALID,1001.97,VALID,0,VALID,88.9833,VALID,0,VALID,26.7219,VALID,42,VALID,0.819141,
2009-08-06, 02:36:04,VALID,1001.99,VALID,0,VALID,89.1511,VALID,0,VALID,26.6614,VALID,16,VALID,1.15664,
2009-08-06, 02:37:04,VALID,1002.01,VALID,0,VALID,89.1206,VALID,0,VALID,26.6614,VALID,39,VALID,1.32344,
2009-08-06, 02:38:04,VALID,1002.01,VALID,0,VALID,88.9833,VALID,0,VALID,26.7024,VALID,35,VALID,1.55859,
2009-08-06, 02:39:04,VALID,1002.04,VALID,0,VALID,89.0595,VALID,0,VALID,26.7004,VALID,33,VALID,0.982813,
2009-08-06, 02:40:04,VALID,1002.01,VALID,0,VALID,88.8459,VALID,0,VALID,26.7024,VALID,24,VALID,1.87578,
2009-08-06, 02:41:04,VALID,1002.03,VALID,0,VALID,88.8841,VALID,0,VALID,26.7219,VALID,20,VALID,1.07695,
2009-08-06, 02:42:04,VALID,1001.97,VALID,0,VALID,88.8459,VALID,0,VALID,26.7004,VALID,23,VALID,1.70234,
2009-08-06, 02:43:04,VALID,1001.97,VALID,0,VALID,88.9451,VALID,0,VALID,26.7219,VALID,29,VALID,0.929688,
2009-08-06, 02:44:04,VALID,1001.93,VALID,0,VALID,88.8765,VALID,0,VALID,26.7045,VALID,32,VALID,1.33867,
2009-08-06, 02:45:04,VALID,1001.92,VALID,0,VALID,88.9909,VALID,0,VALID,26.6809,VALID,6,VALID,0.671875,
2009-08-06, 02:46:04,VALID,1001.9,VALID,0,VALID,89.0367,VALID,0,VALID,26.683,VALID,23,VALID,0.734375,
2009-08-06, 02:47:04,VALID,1001.93,VALID,0,VALID,88.8993,VALID,0,VALID,26.6635,VALID,28,VALID,1.32266,
2009-08-06, 02:48:04,VALID,1001.87,VALID,0,VALID,88.8688,VALID,0,VALID,26.6635,VALID,37,VALID,1.99727,
2009-08-06, 02:49:04,VALID,1001.88,VALID,0,VALID,88.8841,VALID,0,VALID,26.6635,VALID,25,VALID,1.07344,
2009-08-06, 02:50:04,VALID,1001.85,VALID,0,VALID,88.8536,VALID,0,VALID,26.644,VALID,31,VALID,1.18633,
2009-08-06, 02:51:04,VALID,1001.82,VALID,0,VALID,88.7697,VALID,0,VALID,26.644,VALID,39,VALID,2.09922,
2009-08-06, 02:52:04,VALID,1001.77,VALID,0,VALID,88.5789,VALID,0,VALID,26.7024,VALID,27,VALID,1.45508,
2009-08-06, 02:53:04,VALID,1001.74,VALID,0,VALID,88.6018,VALID,0,VALID,26.7045,VALID,17,VALID,1.0082,
2009-08-06, 02:54:04,VALID,1001.7,VALID,0,VALID,88.5179,VALID,0,VALID,26.683,VALID,31,VALID,1.43008,
2009-08-06, 02:55:04,VALID,1001.67,VALID,0,VALID,88.4035,VALID,0,VALID,26.6635,VALID,22,VALID,1.73125,
2009-08-06, 02:56:04,VALID,1001.63,VALID,0,VALID,88.0907,VALID,0,VALID,26.683,VALID,33,VALID,1.35195,
2009-08-06, 02:57:04,VALID,1001.61,VALID,0,VALID,88.022,VALID,0,VALID,26.7024,VALID,34,VALID,1.00039,
2009-08-06, 02:58:04,VALID,1001.61,VALID,0,VALID,87.9,VALID,0,VALID,26.7414,VALID,21,VALID,1.28711,
2009-08-06, 02:59:04,VALID,1001.61,VALID,0,VALID,87.8847,VALID,0,VALID,26.7609,VALID,32,VALID,0.810156,
2009-08-06, 03:00:04,VALID,1001.58,VALID,0,VALID,87.7321,VALID,0,VALID,26.7414,VALID,18,VALID,0.905859,
2009-08-06, 03:01:04,VALID,1001.62,VALID,0,VALID,87.7245,VALID,0,VALID,26.7219,VALID,24,VALID,1.33711,
2009-08-06, 03:02:04,VALID,1001.62,VALID,0,VALID,87.4727,VALID,0,VALID,26.7219,VALID,27,VALID,1.06953,
2009-08-06, 03:03:04,VALID,1001.58,VALID,0,VALID,87.4346,VALID,0,VALID,26.7609,VALID,36,VALID,0.802734,
2009-08-06, 03:04:04,VALID,1001.59,VALID,0,VALID,87.5338,VALID,0,VALID,26.7609,VALID,28,VALID,0.803125,
2009-08-06, 03:05:04,VALID,1001.59,VALID,0,VALID,87.7092,VALID,0,VALID,26.7199,VALID,34,VALID,0.742188,
2009-08-06, 03:06:04,VALID,1001.58,VALID,0,VALID,87.7169,VALID,0,VALID,26.7024,VALID,30,VALID,1.04141,
2009-08-06, 03:07:04,VALID,1001.56,VALID,0,VALID,87.7398,VALID,0,VALID,26.7219,VALID,40,VALID,0.968359,
2009-08-06, 03:08:04,VALID,1001.57,VALID,0,VALID,87.5719,VALID,0,VALID,26.7219,VALID,24,VALID,1.17383,
2009-08-06, 03:09:04,VALID,1001.57,VALID,0,VALID,87.5948,VALID,0,VALID,26.7414,VALID,55,VALID,0.348828,
2009-08-06, 03:10:04,VALID,1001.54,VALID,0,VALID,87.7321,VALID,0,VALID,26.7004,VALID,60,VALID,0.442578,
2009-08-06, 03:11:04,VALID,1001.58,VALID,0,VALID,87.9534,VALID,0,VALID,26.683,VALID,85,VALID,1.15703,
2009-08-06, 03:12:04,VALID,1001.53,VALID,0,VALID,88.0678,VALID,0,VALID,26.683,VALID,32,VALID,0.398828,
2009-08-06, 03:13:04,VALID,1001.5,VALID,0,VALID,88.1593,VALID,0,VALID,26.683,VALID,77,VALID,0.941406,
2009-08-06, 03:14:04,VALID,1001.5,VALID,0,VALID,88.2509,VALID,0,VALID,26.644,VALID,91,VALID,1.0418,
2009-08-06, 03:15:04,VALID,1001.45,VALID,0,VALID,88.4264,VALID,0,VALID,26.6245,VALID,93,VALID,1.18594,
2009-08-06, 03:16:04,VALID,1001.43,VALID,0,VALID,88.701,VALID,0,VALID,26.605,VALID,99,VALID,1.16641,
2009-08-06, 03:17:04,VALID,1001.43,VALID,0,VALID,88.9833,VALID,0,VALID,26.5251,VALID,99,VALID,1.38711,
2009-08-06, 03:18:04,VALID,1001.39,VALID,0,VALID,89.174,VALID,0,VALID,26.4881,VALID,49,VALID,0.937891,
2009-08-06, 03:19:04,VALID,1001.39,VALID,0,VALID,89.3571,VALID,0,VALID,26.4492,VALID,11,VALID,0.741406,
2009-08-06, 03:20:04,VALID,1001.39,VALID,0,VALID,89.5707,VALID,0,VALID,26.4102,VALID,35,VALID,0.722266,
2009-08-06, 03:21:04,VALID,1001.38,VALID,0,VALID,89.8072,VALID,0,VALID,26.3498,VALID,15,VALID,0.766406,
2009-08-06, 03:22:04,VALID,1001.37,VALID,0,VALID,89.9598,VALID,0,VALID,26.3323,VALID,24,VALID,0.559375,
2009-08-06, 03:23:04,VALID,1001.36,VALID,0,VALID,90.0894,VALID,0,VALID,26.2719,VALID,25,VALID,0.333594,
2009-08-06, 03:24:04,VALID,1001.39,VALID,0,VALID,90.1963,VALID,0,VALID,26.2544,VALID,34,VALID,0.195313,
2009-08-06, 03:25:04,VALID,1001.37,VALID,0,VALID,90.2954,VALID,0,VALID,26.2154,VALID,31,VALID,0.554297,
2009-08-06, 03:26:04,VALID,1001.41,VALID,0,VALID,90.2344,VALID,0,VALID,26.1745,VALID,30,VALID,0.934766,
2009-08-06, 03:27:04,VALID,1001.42,VALID,0,VALID,90.3717,VALID,0,VALID,26.1765,VALID,12,VALID,0.248828,
2009-08-06, 03:28:04,VALID,1001.43,VALID,0,VALID,90.4709,VALID,0,VALID,26.157,VALID,12,VALID,0.0628906,
2009-08-06, 03:29:04,VALID,1001.52,VALID,0,VALID,90.4862,VALID,0,VALID,26.1375,VALID,12,VALID,0,
2009-08-06, 03:30:04,VALID,1001.56,VALID,0,VALID,90.4785,VALID,0,VALID,26.118,VALID,12,VALID,0,
2009-08-06, 03:31:04,VALID,1001.59,VALID,0,VALID,90.3946,VALID,0,VALID,26.0985,VALID,12,VALID,0.142578,
2009-08-06, 03:32:04,VALID,1001.62,VALID,0,VALID,90.4099,VALID,0,VALID,26.0596,VALID,359,VALID,0.494141,
2009-08-06, 03:33:04,VALID,1001.65,VALID,0,VALID,90.5624,VALID,0,VALID,26.0381,VALID,253,VALID,0.435937,
2009-08-06, 03:34:04,VALID,1001.67,VALID,0,VALID,90.6921,VALID,0,VALID,25.9992,VALID,253,VALID,0.461719,
2009-08-06, 03:35:04,VALID,1001.72,VALID,0,VALID,90.6387,VALID,0,VALID,25.9797,VALID,284,VALID,0.389453,
2009-08-06, 03:36:04,VALID,1001.78,VALID,0,VALID,90.6387,VALID,0,VALID,25.9602,VALID,284,VALID,0.346484,
2009-08-06, 03:37:04,VALID,1001.82,VALID,0,VALID,90.715,VALID,0,VALID,25.9622,VALID,284,VALID,0.3625,
2009-08-06, 03:38:04,VALID,1001.88,VALID,0,VALID,90.8676,VALID,0,VALID,25.9622,VALID,249,VALID,0.782812,
2009-08-06, 03:39:05,VALID,1002.04,VALID,0,VALID,91.1346,VALID,0,VALID,25.9622,VALID,237,VALID,0.359375,
2009-08-06, 03:40:05,VALID,1002.15,VALID,0,VALID,91.3864,VALID,0,VALID,25.9622,VALID,239,VALID,0.328906,
2009-08-06, 03:41:05,VALID,1002.21,VALID,0,VALID,91.5771,VALID,0,VALID,25.9622,VALID,287,VALID,0.749219,
2009-08-06, 03:42:05,VALID,1002.27,VALID,0,VALID,91.6534,VALID,0,VALID,25.9622,VALID,248,VALID,0.963281,
2009-08-06, 03:43:05,VALID,1002.3,VALID,0,VALID,90.982,VALID,0,VALID,25.9427,VALID,235,VALID,1.94922,
2009-08-06, 03:44:05,VALID,1002.3,VALID,0,VALID,89.8606,VALID,0,VALID,25.9057,VALID,183,VALID,0.878516,
2009-08-06, 03:45:05,VALID,1002.33,VALID,0,VALID,89.6393,VALID,0,VALID,25.8843,VALID,241,VALID,0.806641,
2009-08-06, 03:46:05,VALID,1002.3,VALID,0,VALID,89.3418,VALID,0,VALID,25.8823,VALID,265,VALID,1.46992,
2009-08-06, 03:47:05,VALID,1002.36,VALID,0,VALID,88.7315,VALID,0,VALID,25.8629,VALID,262,VALID,0.926562,